Rochelle, IL

10:58 PM CST on December 07, 2016 (GMT -0600)
Rochelle

Weather History for KRPJ - December, 2012

Change the Weather History Date:

Friday, December 14, 2012

  Actual Average (KRFD) Record (KRFD)
Temperature  
Mean Temperature 34 °F 26 °F  
Max Temperature 46 °F 33 °F 61 °F (2015)
Min Temperature 23 °F 18 °F -11 °F (1985)
Degree Days  
Heating Degree Days 30 40  
Month to date heating degree days 518  
Since 1 July heating degree days 1853  
Cooling Degree Days 0 0  
Month to date cooling degree days 0  
Year to date cooling degree days 820  
Moisture  
Dew Point 30 °F    
Average Humidity 81    
Maximum Humidity 96    
Minimum Humidity 59    
Precipitation  
Precipitation 0.00 in 0.06 in 0.76 in (1975)
Month to date precipitation 1.02  
Year to date precipitation 35.28  
Snow  
Snow 0.00 in 0.40 in 4.50 in (1983)
Month to date snowfall 4.7  
Since 1 July snowfall 6.5  
Snow Depth -    
Sea Level Pressure  
Sea Level Pressure 30.11 in    
Wind  
Wind Speed 5 mph (SSE)    
Max Wind Speed 14 mph    
Max Gust Speed -    
Visibility 10 miles    
Events      
T = Trace of Precipitation, MM = Missing Value Source: NWS Daily Summary

Daily Weather History Graph

Daily Weather History Graph

Search for Another Location

Airport or City:

Trip Planner

Search our weather history database for the weather conditions in past years. The results will help you decide how hot, cold, wet, or windy it might be!

Date:

Astronomy

Dec. 14, 2012 Rise Set
Actual Time 7:16 AM CST 4:25 PM CST
Civil Twilight 6:44 AM CST 4:57 PM CST
Nautical Twilight 6:09 AM CST 5:32 PM CST
Astronomical Twilight 5:35 AM CST 6:06 PM CST
Moon 8:20 AM CST (12/14) 6:19 PM CST (12/14)
Length of Visible Light 10h 12m
Length of Day
9h 09m
Waxing Crescent, 3% of the Moon is Illuminated
Dec 14
Waxing Crescent
Dec 19
First Quarter
Dec 28
Full
Jan 4
Last Quarter
Jan 11
New

Hourly Weather History & Observations

Time (CST) Temp. Windchill Dew Point Humidity Pressure Visibility Wind Dir Wind Speed Gust Speed Precip Events Conditions
12:15 AM 31.1 °F 26.4 °F 28.8 °F 91% 30.14 in 10.0 mi SSW 4.6 mph - N/A   Clear
12:35 AM 30.0 °F 26.5 °F 28.0 °F 92% 30.14 in 10.0 mi SSW 3.5 mph - N/A   Clear
12:55 AM 30.4 °F - 28.4 °F 92% 30.14 in 10.0 mi Calm Calm - N/A   Clear
1:15 AM 29.3 °F - 27.7 °F 94% 30.14 in 10.0 mi Calm Calm - N/A   Clear
1:35 AM 30.2 °F 26.7 °F 28.2 °F 92% 30.15 in 10.0 mi SSE 3.5 mph - N/A   Clear
1:55 AM 28.4 °F 24.6 °F 26.2 °F 92% 30.16 in 10.0 mi SSE 3.5 mph - N/A   Clear
2:15 AM 26.8 °F 21.4 °F 25.5 °F 95% 30.16 in 10.0 mi South 4.6 mph - N/A   Clear
2:35 AM 25.7 °F 21.5 °F 24.3 °F 94% 30.16 in 10.0 mi SSE 3.5 mph - N/A   Clear
2:55 AM 25.7 °F 20.1 °F 24.6 °F 96% 30.16 in 10.0 mi SSE 4.6 mph - N/A   Clear
3:15 AM 25.7 °F 20.1 °F 24.6 °F 96% 30.16 in 10.0 mi SSE 4.6 mph - N/A   Clear
3:35 AM 25.2 °F 19.5 °F 23.7 °F 94% 30.16 in 10.0 mi SSE 4.6 mph - N/A   Clear
3:55 AM 25.5 °F 19.9 °F 24.1 °F 94% 30.15 in 10.0 mi SSE 4.6 mph - N/A   Clear
4:15 AM 25.0 °F 20.7 °F 23.9 °F 96% 30.16 in 10.0 mi SSE 3.5 mph - N/A   Clear
4:35 AM 25.7 °F 21.5 °F 23.9 °F 93% 30.15 in 10.0 mi SE 3.5 mph - N/A   Clear
5:15 AM 25.0 °F 20.7 °F 23.5 °F 94% 30.14 in 10.0 mi SE 3.5 mph - N/A   Clear
5:35 AM 24.4 °F 18.6 °F 23.0 °F 94% 30.14 in 10.0 mi SE 4.6 mph - N/A   Clear
5:55 AM 23.9 °F 19.5 °F 22.3 °F 94% 30.14 in 10.0 mi ESE 3.5 mph - N/A   Clear
6:15 AM 23.7 °F 15.6 °F 22.3 °F 94% 30.15 in 10.0 mi SSE 6.9 mph - N/A   Clear
6:35 AM 24.8 °F 20.5 °F 23.2 °F 94% 30.16 in 10.0 mi SE 3.5 mph - N/A   Clear
6:55 AM 24.6 °F 20.3 °F 22.8 °F 93% 30.16 in 10.0 mi SE 3.5 mph - N/A   Clear
7:15 AM 25.3 °F 18.5 °F 23.4 °F 92% 30.16 in 10.0 mi SE 5.8 mph - N/A   Clear
7:35 AM 24.8 °F 17.9 °F 23.5 °F 95% 30.16 in 10.0 mi SE 5.8 mph - N/A   Clear
7:55 AM 25.5 °F 21.3 °F 23.7 °F 93% 30.16 in 10.0 mi ESE 3.5 mph - N/A   Clear
8:15 AM 28.9 °F - 26.6 °F 91% 30.17 in 10.0 mi Calm Calm - N/A   Clear
8:35 AM 31.1 °F - 27.7 °F 87% 30.17 in 10.0 mi Calm Calm - N/A   Clear
8:55 AM 32.0 °F - 29.3 °F 90% 30.18 in 10.0 mi Calm Calm - N/A   Clear
9:15 AM 34.3 °F 31.4 °F 30.6 °F 86% 30.17 in 10.0 mi SE 3.5 mph - N/A   Clear
9:35 AM 36.1 °F 32.3 °F 30.6 °F 80% 30.18 in 10.0 mi SE 4.6 mph - N/A   Clear
9:55 AM 37.6 °F 34.0 °F 30.6 °F 76% 30.17 in 10.0 mi SE 4.6 mph - N/A   Clear
10:15 AM 39.4 °F 36.1 °F 30.7 °F 71% 30.17 in 10.0 mi SSE 4.6 mph - N/A   Clear
10:35 AM 41.0 °F 37.1 °F 30.0 °F 65% 30.17 in 10.0 mi SSE 5.8 mph - N/A   Clear
10:55 AM 41.9 °F 39.0 °F 31.6 °F 67% 30.15 in 10.0 mi SSE 4.6 mph - N/A   Clear
11:15 AM 43.5 °F 40.1 °F 31.6 °F 63% 30.14 in 10.0 mi SSE 5.8 mph - N/A   Clear
11:35 AM 44.8 °F 41.0 °F 32.0 °F 61% 30.13 in 10.0 mi SSE 6.9 mph - N/A   Clear
12:15 PM 45.3 °F 40.6 °F 31.8 °F 59% 30.12 in 10.0 mi SSE 9.2 mph - N/A   Clear
12:35 PM 45.1 °F 40.8 °F 32.0 °F 60% 30.11 in 10.0 mi SSE 8.1 mph - N/A   Clear
12:55 PM 45.5 °F 40.8 °F 32.5 °F 61% 30.10 in 10.0 mi SSE 9.2 mph - N/A   Clear
1:15 PM 46.4 °F 41.9 °F 32.7 °F 59% 30.10 in 10.0 mi SSE 9.2 mph - N/A   Clear
1:35 PM 46.4 °F 41.9 °F 32.7 °F 59% 30.09 in 10.0 mi SE 9.2 mph - N/A   Clear
1:55 PM 46.6 °F - 33.1 °F 59% 30.09 in 10.0 mi SSE 6.9 mph - N/A   Clear
2:15 PM 46.4 °F 41.9 °F 32.7 °F 59% 30.08 in 10.0 mi SSE 9.2 mph - N/A   Clear
2:35 PM 46.6 °F - 33.3 °F 60% 30.09 in 10.0 mi SSE 10.4 mph - N/A   Clear
2:55 PM 46.0 °F 41.4 °F 33.3 °F 61% 30.08 in 10.0 mi SE 9.2 mph - N/A   Clear
3:15 PM 45.1 °F 40.8 °F 33.1 °F 63% 30.07 in 10.0 mi SE 8.1 mph - N/A   Clear
3:35 PM 43.7 °F 39.1 °F 34.0 °F 69% 30.07 in 10.0 mi SE 8.1 mph - N/A   Clear
3:55 PM 41.5 °F 37.1 °F 34.2 °F 75% 30.07 in 10.0 mi SE 6.9 mph - N/A   Clear
4:15 PM 40.1 °F 35.3 °F 33.8 °F 78% 30.08 in 10.0 mi SE 6.9 mph - N/A   Clear
4:35 PM 37.8 °F 32.5 °F 32.9 °F 83% 30.07 in 10.0 mi SE 6.9 mph - N/A   Clear
4:55 PM 35.8 °F 30.1 °F 32.0 °F 86% 30.07 in 10.0 mi SE 6.9 mph - N/A   Clear
5:15 PM 36.5 °F 30.3 °F 32.0 °F 84% 30.07 in 10.0 mi SE 8.1 mph - N/A   Clear
5:35 PM 36.5 °F 30.3 °F 32.0 °F 84% 30.07 in 10.0 mi SE 8.1 mph - N/A   Clear
5:55 PM 36.7 °F 30.5 °F 32.2 °F 84% 30.07 in 10.0 mi SSE 8.1 mph - N/A   Clear
6:15 PM 38.3 °F 31.4 °F 33.1 °F 81% 30.07 in 10.0 mi SSE 10.4 mph - N/A   Clear
6:35 PM 38.5 °F 31.1 °F 33.8 °F 83% 30.06 in 10.0 mi SSE 11.5 mph - N/A   Clear
6:55 PM 39.6 °F 33.0 °F 34.2 °F 81% 30.06 in 10.0 mi SE 10.4 mph - N/A   Clear
7:15 PM 39.9 °F 32.9 °F 34.7 °F 82% 30.06 in 10.0 mi SE 11.5 mph - N/A   Clear
7:55 PM 40.3 °F 33.4 °F 34.9 °F 81% 30.06 in 10.0 mi SSE 11.5 mph - N/A   Clear
8:15 PM 40.5 °F 33.6 °F 35.1 °F 81% 30.06 in 10.0 mi SE 11.5 mph - N/A   Clear
8:35 PM 41.0 °F 34.3 °F 35.6 °F 81% 30.04 in 10.0 mi SE 11.5 mph - N/A   Clear
8:55 PM 40.3 °F 33.4 °F 35.6 °F 83% 30.04 in 10.0 mi SE 11.5 mph - N/A   Clear
9:15 PM 41.4 °F 34.7 °F 35.6 °F 80% 30.03 in 10.0 mi SE 11.5 mph - N/A   Mostly Cloudy
9:35 PM 41.5 °F 34.6 °F 35.8 °F 80% 30.03 in 10.0 mi SE 12.7 mph - N/A   Overcast
9:55 PM 41.4 °F 34.7 °F 35.8 °F 81% 30.03 in 10.0 mi SSE 11.5 mph - N/A   Overcast
10:15 PM 41.7 °F 34.8 °F 35.6 °F 79% 30.01 in 10.0 mi SE 12.7 mph - N/A   Overcast
10:35 PM 41.9 °F 35.9 °F 35.6 °F 78% 30.01 in 10.0 mi SSE 10.4 mph - N/A   Overcast
10:55 PM 41.9 °F 35.0 °F 35.2 °F 77% 29.99 in 10.0 mi SSE 12.7 mph - N/A   Overcast
11:15 PM 41.9 °F 35.9 °F 35.1 °F 77% 29.99 in 10.0 mi SE 10.4 mph - N/A   Overcast
11:35 PM 41.9 °F 35.0 °F 34.9 °F 76% 29.99 in 10.0 mi SSE 12.7 mph - N/A   Overcast
11:55 PM 41.4 °F 34.0 °F 34.7 °F 77% 29.98 in 10.0 mi SE 13.8 mph - N/A   Overcast